This is the latest recevied weather packets stored in our database for station/object IT9IJI-13. If no packets are shown the sender has not sent any weather packets the latest 1 day(s).
| Time | Temp. | Humidity | Pressure | Rain* | Wind** | Luminosity | Snow |
|---|---|---|---|---|---|---|---|
| 1778059444 | 22.22° C | 65% | 1016 hPa | 0 mm | 0 m/s | 0 W/m² | - |
| 1778059384 | 22.22° C | 65% | 1016 hPa | 0 mm | 0 m/s | 0 W/m² | - |
| 1778059324 | 22.22° C | 65% | 1016.1 hPa | 0 mm | 0 m/s | 0 W/m² | - |
| 1778059264 | 22.22° C | 65% | 1016.1 hPa | 0 mm | 0 m/s | 0 W/m² | - |
| 1778059204 | 22.22° C | 65% | 1016 hPa | 0 mm | 0 m/s | 0 W/m² | - |
| 1778059144 | 22.22° C | 65% | 1016.2 hPa | 0 mm | 0 m/s | 0 W/m² | - |
| 1778059084 | 22.22° C | 65% | 1016.1 hPa | 0 mm | 0 m/s | 0 W/m² | - |
| 1778059024 | 22.22° C | 65% | 1016 hPa | 0 mm | 0 m/s | 0 W/m² | - |
| 1778058964 | 22.22° C | 65% | 1015.9 hPa | 0 mm | 0 m/s | 0 W/m² | - |
| 1778058904 | 22.22° C | 64% | 1015.8 hPa | 0 mm | 0.45 m/s, 118° | 0 W/m² | - |
| 1778058844 | 22.22° C | 64% | 1015.8 hPa | 0 mm | 0.45 m/s, 117° | 0 W/m² | - |
| 1778058784 | 22.78° C | 64% | 1015.8 hPa | 0 mm | 0.45 m/s, 115° | 0 W/m² | - |
| 1778058724 | 22.78° C | 64% | 1015.7 hPa | 0 mm | 0.45 m/s, 115° | 0 W/m² | - |
| 1778058664 | 22.78° C | 64% | 1015.5 hPa | 0 mm | 0.45 m/s, 115° | 0 W/m² | - |
| 1778058604 | 22.78° C | 64% | 1015.5 hPa | 0 mm | 0.45 m/s, 115° | 0 W/m² | - |
| 1778058544 | 22.78° C | 64% | 1015.5 hPa | 0 mm | 0.45 m/s, 114° | 0 W/m² | - |
| 1778058484 | 22.78° C | 64% | 1015.5 hPa | 0 mm | 0.45 m/s, 112° | 0 W/m² | - |
| 1778058423 | 22.78° C | 64% | 1015.5 hPa | 0 mm | 0.45 m/s, 112° | 0 W/m² | - |
| 1778058364 | 23.33° C | 63% | 1015.5 hPa | 0 mm | 0.45 m/s, 112° | 0 W/m² | - |
| 1778058304 | 23.33° C | 63% | 1015.7 hPa | 0 mm | 0.45 m/s, 109° | 0 W/m² | - |
| 1778058244 | 23.33° C | 63% | 1015.7 hPa | 0 mm | 0.45 m/s, 110° | 0 W/m² | - |
| 1778058184 | 23.33° C | 63% | 1015.6 hPa | 0 mm | 0.45 m/s, 110° | 0 W/m² | - |
| 1778058123 | 23.33° C | 63% | 1015.7 hPa | 0 mm | 0.45 m/s, 114° | 0 W/m² | - |
| 1778058063 | 23.33° C | 63% | 1015.9 hPa | 0 mm | 0.45 m/s, 114° | 0 W/m² | - |
| 1778058003 | 23.33° C | 63% | 1015.9 hPa | 0 mm | 0.45 m/s, 114° | 0 W/m² | - |
* Rain latest hour (hover to see other rain measurements)
** Current wind speed in m/s (hover to see current wind gust speed)